Notices

Please take our survey and provide feedback: https://eccc.sondage-survey.ca/f/LanguageSelection.aspx?s=442ca660-fcf1-47c0-95a9-59707d6fd709

Please note that the IDF dataset is available through this link: Intensity-Duration-Frequency (IDF) Files .

Hourly Data Report for November 30, 2019

EUREKA CLIMATE
NUNAVUT
Current Station Operator: ECCC - MSC

79°59'21.000" N
85°56'02.000" W
10.00 m
2401199
71613
NEK

Download Data

Hourly Data (November 2019)
Hourly Data Report for November 30, 2019
TIME
LST
Temp Definition
°C
Dew Point Definition
°C
Rel Hum Definition
%
Precip. Amount Definition
mm

Wind Dir Definition
10's deg

Wind Spd Definition
km/h
Visibility Definition
km
Stn Press Definition
kPa
Hmdx Definition


Wind Chill Definition


Weather Definition


00:00 -25.9 -28.4 79 0.0 5 10   100.29   -34 LegendNANA
01:00 -25.1 -27.5 80 0.0 10 9   100.35   -33 LegendNANA
02:00 -25.6 -28.0 80 0.0 7 10   100.38   -34 LegendNANA
03:00 -24.8 -27.2 81 0.0 7 3   100.42   -28 LegendNANA
04:00 -24.3 -26.7 81 0.0 8 5   100.43   -29 LegendNANA
05:00 -25.5 -28.0 80 0.0 3 4   100.48   -30 LegendNANA
06:00 -25.8 -28.3 80 0.2 2 14   100.49   -36 LegendNANA
07:00 -25.7 -28.1 80 0.0 12 8   100.52   -33 LegendNANA
08:00 -25.7 -28.2 80 0.0 4 5   100.52   -31 LegendNANA
09:00 -27.7 -30.4 78 0.0 2 7   100.51   -35 LegendNANA
10:00 -28.3 -30.9 78 0.0 2 9   100.52   -37 LegendNANA
11:00 -28.9 -31.5 78 0.0 11 8   100.52   -37 LegendNANA
12:00 -28.9 -31.5 78 0.0 10 4   100.52   -33 LegendNANA
13:00 -30.1 -32.8 77 0.0 8 2   100.48   -32 LegendNANA
14:00 -31.5 -34.4 75 0.0 14 3   100.49   -35 LegendNANA
15:00 -31.9 -34.8 75 0.0 19 2   100.47   -34 LegendNANA
16:00 -32.3 -35.3 75 0.0 15 2   100.47   -35 LegendNANA
17:00 -31.4 -34.1 77 0.0 35 8   100.44   -40 LegendNANA
18:00 -29.1 -31.7 78 0.0 33 7   100.41   -36 LegendNANA
19:00 -33.5 -36.6 73 0.0 11 13   100.44   -45 LegendNANA
20:00 -32.1 -35.1 74 0.0 13 3   100.40   -36 LegendNANA
21:00 -32.1 -35.0 75 0.0 4 2   100.37   -34 LegendNANA
22:00 -34.1 -37.4 72 0.0 11 9   100.32   -43 LegendNANA
23:00 -33.6 -36.8 73 0.0 12 6   100.26   -41 LegendNANA

Notes on Data Quality.

Legend

  • E = Estimated
  • M = Missing
  • NA = Not Available*
  • [empty] = Indicates an unobserved value
Date modified: